Погода в Хилке

Россия / Забайкальский край     51°21′48″N   110°27′32″E
темп.,
°C
ветер,
м/с
пор.,
м/с
влажн.,
%
обл.,
%
осадки,
мм/ч
давл.,
гПа
погр.,
м
20 апреля, вт
вт2000:00+2ю34486 0.0 101056
03:00+2ю3654100 0.0 100790
06:00+1ю3568100 0.0 100679
09:00+10зюз393095 0.0 1003626
12:00+12зсз352794 0.0 10041026
15:00+16зсз4919100 0.0 10022100
18:00+16з4719100 0.0 10002004
21:00+7сз2243100 0.0 100313
21 апреля, ср
ср2100:00+2зсз216894 0.0 100820
03:00+1зсз117586 0.0 100710
06:00−1зсз11845 0.0 100712
09:00+2сз3564100 0.0 1010650
12:00+6сз454341 0.0 10091099
15:00+9сз5536100 0.0 10081502
18:00+8ссз5633100 0.0 10091644
21:00+1с5848100 0.0 1016925
22 апреля, чт
чт2200:00−4сз3777100 0.0 1021627
03:00−4сз378073 0.2 1023672
06:00−7з22939 0.0 102621
09:00−3ссз35417 0.0 1027838
12:00+2ссз3324100 0.0 10251273
15:00+5с3318100 0.0 10231553
18:00+3ссз3324100 0.4 10251411
21:000с3643100 1.4 1029392
23 апреля, пт
пт2300:00−2вюв0393100 2.7 1034196
03:00−3ссв2497100 5.2 1035311
06:00−3всв2697100 1.8 1038478
09:00−3всв3690100 2.8 1040522
12:00+1св3475100 0.2 1040959
15:00+3св3363100 0.3 10391235
18:00+4ссв2357100 0.0 10381230
21:00−2зсз1191100 0.0 104110
24 апреля, сб
сб2400:00−3ююз1191100 0.0 104310
03:00−4ююв1190100 0.0 104310
06:00−5ююв119093 0.0 104310
09:00+1в1259100 0.0 1041234
12:00+7вюв2352100 0.0 10361101
15:00+11всв1345100 0.0 10311715
18:00+11зюз1245100 0.0 10291590
21:00+4юз118577 0.0 103110